Madison, SD

12:07 PM CDT on June 29, 2017 (GMT -0500)
Madison Municipal

Weather History for KMDS - December, 2012

Change the Weather History Date:

Friday, December 14, 2012

  Actual Average Record
Temperature  
Mean Temperature 26 °F -  
Max Temperature 37 °F 26 °F 53 °F (2014)
Min Temperature 15 °F 8 °F -4 °F (2016)
Degree Days  
Heating Degree Days 39    
Moisture  
Dew Point 26 °F    
Average Humidity 98    
Maximum Humidity 100    
Minimum Humidity 87    
Precipitation  
Precipitation 0.00 in - - ()
Sea Level Pressure  
Sea Level Pressure 29.82 in    
Wind  
Wind Speed 7 mph (SE)    
Max Wind Speed 14 mph    
Max Gust Speed -    
Visibility 10 miles    
Events      
Averages and records for this station are not official NWS values.
T = Trace of Precipitation, MM = Missing Value Source: NWS Daily Summary

Daily Weather History Graph

Daily Weather History Graph

Search for Another Location

Airport or City:

Trip Planner

Search our weather history database for the weather conditions in past years. The results will help you decide how hot, cold, wet, or windy it might be!

Date:

Astronomy

Dec. 14, 2012 Rise Set
Actual Time 7:55 AM CST 4:50 PM CST
Civil Twilight 7:22 AM CST 5:23 PM CST
Nautical Twilight 6:46 AM CST 6:00 PM CST
Astronomical Twilight 6:11 AM CST 6:35 PM CST
Moon 8:59 AM CST (12/14) 6:47 PM CST (12/14)
Length of Visible Light 10h 00m
Length of Day
8h 54m
Waxing Crescent, 3% of the Moon is Illuminated
Dec 14
Waxing Crescent
Dec 19
First Quarter
Dec 28
Full
Jan 4
Last Quarter
Jan 11
New

Hourly Weather History & Observations

Time (CST) Temp. Windchill Dew Point Humidity Pressure Visibility Wind Dir Wind Speed Gust Speed Precip Events Conditions
12:00 AM 17.6 °F 9.3 °F 17.6 °F 100% 30.03 in 9.0 mi ESE 5.8 mph - N/A   Clear
12:20 AM 15.8 °F 5.1 °F 15.8 °F 100% 30.02 in 8.0 mi SE 8.1 mph - N/A   Clear
12:40 AM 17.6 °F 8.2 °F 17.6 °F 100% 30.02 in 10.0 mi SE 6.9 mph - N/A   Clear
1:00 AM 15.8 °F 6.1 °F 15.8 °F 100% 30.02 in 8.0 mi SE 6.9 mph - N/A   Clear
1:20 AM 15.8 °F 6.1 °F 15.8 °F 100% 30.02 in 8.0 mi SE 6.9 mph - N/A   Clear
1:40 AM 15.8 °F 6.1 °F 15.8 °F 100% 30.02 in 8.0 mi SE 6.9 mph - N/A   Clear
2:00 AM 17.6 °F 9.3 °F 17.6 °F 100% 30.02 in 10.0 mi SE 5.8 mph - N/A   Scattered Clouds
2:20 AM 15.8 °F 8.6 °F 15.8 °F 100% 30.01 in 6.0 mi ESE 4.6 mph - N/A   Scattered Clouds
2:40 AM 15.8 °F 5.1 °F 15.8 °F 100% 30.01 in 6.0 mi SE 8.1 mph - N/A   Partly Cloudy
3:00 AM 15.8 °F 6.1 °F 15.8 °F 100% 30.00 in 7.0 mi SSE 6.9 mph - N/A   Clear
3:20 AM 15.8 °F 6.1 °F 15.8 °F 100% 29.99 in 7.0 mi SSE 6.9 mph - N/A   Scattered Clouds
3:40 AM 15.8 °F 7.2 °F 15.8 °F 100% 29.99 in 6.0 mi SE 5.8 mph - N/A   Mostly Cloudy
4:00 AM 15.8 °F 8.6 °F 15.8 °F 100% 29.98 in 7.0 mi ESE 4.6 mph - N/A   Mostly Cloudy
4:20 AM 15.8 °F 6.1 °F 15.8 °F 100% 29.98 in 7.0 mi SE 6.9 mph - N/A   Scattered Clouds
5:00 AM 15.8 °F 5.1 °F 15.8 °F 100% 29.96 in 10.0 mi SSE 8.1 mph - N/A   Clear
5:20 AM 15.8 °F 3.4 °F 15.8 °F 100% 29.95 in 10.0 mi SSE 10.4 mph - N/A   Clear
5:40 AM 17.6 °F 6.4 °F 17.6 °F 100% 29.94 in 10.0 mi SSE 9.2 mph - N/A   Clear
6:00 AM 17.6 °F 5.7 °F 17.6 °F 100% 29.94 in 10.0 mi South 10.4 mph - N/A   Clear
6:20 AM 17.6 °F 8.2 °F 17.6 °F 100% 29.95 in 10.0 mi SSE 6.9 mph - N/A   Clear
6:40 AM 17.6 °F 7.3 °F 17.6 °F 100% 29.94 in 10.0 mi SSE 8.1 mph - N/A   Clear
7:00 AM 17.6 °F 8.2 °F 17.6 °F 100% 29.94 in 10.0 mi SSE 6.9 mph - N/A   Clear
7:20 AM 17.6 °F 6.4 °F 17.6 °F 100% 29.93 in 10.0 mi SSE 9.2 mph - N/A   Clear
7:40 AM 17.6 °F 6.4 °F 17.6 °F 100% 29.93 in 10.0 mi SSE 9.2 mph - N/A   Clear
8:00 AM 17.6 °F 8.2 °F 17.6 °F 100% 29.93 in 10.0 mi SE 6.9 mph - N/A   Clear
8:20 AM 19.4 °F 14.3 °F 19.4 °F 100% 29.93 in 10.0 mi SE 3.5 mph - N/A   Clear
8:40 AM 19.4 °F 12.8 °F 19.4 °F 100% 29.92 in 10.0 mi SSE 4.6 mph - N/A   Clear
9:00 AM 19.4 °F 10.4 °F 19.4 °F 100% 29.92 in 10.0 mi SSE 6.9 mph - N/A   Clear
9:20 AM 19.4 °F 11.5 °F 19.4 °F 100% 29.92 in 10.0 mi South 5.8 mph - N/A   Clear
9:40 AM 19.4 °F 9.5 °F 19.4 °F 100% 29.92 in 10.0 mi South 8.1 mph - N/A   Clear
10:00 AM 23.0 °F 17.0 °F 23.0 °F 100% 29.92 in 10.0 mi SSE 4.6 mph - N/A   Clear
10:20 AM 23.0 °F 13.9 °F 23.0 °F 100% 29.91 in 10.0 mi SSE 8.1 mph - N/A   Clear
10:40 AM 24.8 °F 16.1 °F 24.8 °F 100% 29.90 in 10.0 mi SSE 8.1 mph - N/A   Clear
11:00 AM 24.8 °F 17.9 °F 24.8 °F 100% 29.89 in 10.0 mi SE 5.8 mph - N/A   Clear
11:20 AM 26.6 °F 20.0 °F 26.6 °F 100% 29.87 in 10.0 mi ESE 5.8 mph - N/A   Clear
11:40 AM 26.6 °F 21.2 °F 26.6 °F 100% 29.85 in 10.0 mi ESE 4.6 mph - N/A   Clear
12:00 PM 28.4 °F 21.2 °F 28.4 °F 100% 29.84 in 10.0 mi East 6.9 mph - N/A   Clear
12:20 PM 28.4 °F 19.7 °F 28.4 °F 100% 29.82 in 10.0 mi East 9.2 mph - N/A   Clear
12:40 PM 32.0 °F 24.2 °F 32.0 °F 100% 29.80 in 10.0 mi East 9.2 mph - N/A   Clear
1:00 PM 32.0 °F 24.8 °F 32.0 °F 100% 29.78 in 10.0 mi East 8.1 mph - N/A   Clear
1:20 PM 32.0 °F 26.4 °F 32.0 °F 100% 29.78 in 10.0 mi East 5.8 mph - N/A   Clear
1:40 PM 32.0 °F 24.8 °F 32.0 °F 100% 29.76 in 10.0 mi East 8.1 mph - N/A   Clear
2:00 PM 32.0 °F 24.8 °F 32.0 °F 100% 29.75 in 10.0 mi East 8.1 mph - N/A   Clear
2:20 PM 33.8 °F 25.8 °F 33.8 °F 100% 29.74 in 10.0 mi ESE 10.4 mph - N/A   Clear
2:40 PM 33.8 °F 27.7 °F 33.8 °F 100% 29.72 in 10.0 mi ESE 6.9 mph - N/A   Clear
3:00 PM 33.8 °F 28.6 °F 33.8 °F 100% 29.72 in 10.0 mi ESE 5.8 mph - N/A   Clear
3:20 PM 32.0 °F 25.6 °F 32.0 °F 100% 29.72 in 10.0 mi SE 6.9 mph - N/A   Clear
4:00 PM 35.6 °F 27.5 °F 33.8 °F 93% 29.72 in 10.0 mi SSE 11.5 mph - N/A   Clear
4:20 PM 35.6 °F 26.6 °F 32.0 °F 87% 29.71 in 10.0 mi SSE 13.8 mph - N/A   Clear
4:40 PM 35.6 °F 28.0 °F 32.0 °F 87% 29.71 in 10.0 mi SSE 10.4 mph - N/A   Clear
5:00 PM 35.6 °F 29.9 °F 32.0 °F 87% 29.71 in 10.0 mi SSE 6.9 mph - N/A   Clear
5:20 PM 35.6 °F 31.7 °F 33.8 °F 93% 29.71 in 10.0 mi SE 4.6 mph - N/A   Clear
5:40 PM 33.8 °F 27.7 °F 33.8 °F 100% 29.70 in 10.0 mi ESE 6.9 mph - N/A   Clear
6:00 PM 33.8 °F 27.7 °F 33.8 °F 100% 29.69 in 10.0 mi ESE 6.9 mph - N/A   Clear
6:20 PM 35.6 °F 28.0 °F 33.8 °F 93% 29.69 in 10.0 mi SE 10.4 mph - N/A   Clear
6:40 PM 35.6 °F 29.9 °F 33.8 °F 93% 29.68 in 10.0 mi SE 6.9 mph - N/A   Clear
7:00 PM 35.6 °F 28.6 °F 33.8 °F 93% 29.67 in 10.0 mi SE 9.2 mph - N/A   Partly Cloudy
7:20 PM 35.6 °F 28.6 °F 33.8 °F 93% 29.66 in 10.0 mi SSE 9.2 mph - N/A   Clear
7:40 PM 35.6 °F 28.0 °F 33.8 °F 93% 29.66 in 10.0 mi SSE 10.4 mph - N/A   Clear
8:00 PM 35.6 °F 28.6 °F 35.6 °F 100% 29.66 in 10.0 mi SSE 9.2 mph - N/A   Clear
8:20 PM 37.4 °F 29.8 °F 35.6 °F 93% 29.64 in 10.0 mi SSE 11.5 mph - N/A   Clear
8:40 PM 37.4 °F 28.9 °F 35.6 °F 93% 29.64 in 10.0 mi South 13.8 mph - N/A   Clear
9:00 PM 37.4 °F 28.9 °F 35.6 °F 93% 29.63 in 10.0 mi South 13.8 mph - N/A   Scattered Clouds
9:20 PM 37.4 °F 30.3 °F 37.4 °F 100% 29.63 in 10.0 mi South 10.4 mph - N/A   Mostly Cloudy
9:40 PM 37.4 °F 30.8 °F 37.4 °F 100% 29.63 in 10.0 mi South 9.2 mph - N/A   Overcast
10:00 PM 37.4 °F 32.1 °F 37.4 °F 100% 29.63 in 10.0 mi SSE 6.9 mph - N/A   Mostly Cloudy
10:20 PM 37.4 °F 32.1 °F 37.4 °F 100% 29.61 in 10.0 mi South 6.9 mph - N/A   Mostly Cloudy
10:40 PM 37.4 °F 30.8 °F 37.4 °F 100% 29.61 in 10.0 mi South 9.2 mph - N/A   Overcast
11:00 PM 37.4 °F 30.8 °F 37.4 °F 100% 29.60 in 10.0 mi SE 9.2 mph - N/A   Overcast
11:20 PM 37.4 °F 30.8 °F 37.4 °F 100% 29.60 in 10.0 mi SSE 9.2 mph - N/A   Overcast
11:40 PM 37.4 °F 31.4 °F 37.4 °F 100% 29.60 in 10.0 mi SSE 8.1 mph - N/A   Mostly Cloudy